Wind_Speed
37 36 35 31 34 36 34 33 31 31 30 30 27 24 24 23 17 17 16 16 16 18 22 22 23 24 25 26 27 27 28 30 30 30 32 32 32 34 34 34 33 33 32 32
38 38 35 36 35 37 36 34 32 34 35 33 32 26 27 26 22 21 20 19 21 21 24 27 29 29 29 30 31 33 35 35 35 34 33 33 36 34 35 36 37 37 37 37
41 40 37 37 39 39 36 35 34 37 38 38 35 31 31 28 25 26 22 23 24 25 27 29 31 32 34 34 35 38 39 38 37 36 35 34 34 36 37 38 39 41 41 40
45 44 40 40 41 41 40 40 39 41 42 41 38 42 34 30 29 28 26 29 27 27 29 29 31 30 34 35 37 40 42 40 38 34 33 34 36 37 38 39 40 42 42 43
45 45 42 42 42 43 45 43 43 43 44 45 43 47 37 33 32 28 31 32 32 32 33 32 33 33 33 36 38 42 44 42 42 37 32 33 35 37 38 38 41 42 43 43
47 47 46 46 44 45 47 48 47 47 47 49 47 49 47 36 36 31 34 33 34 35 35 35 36 35 36 37 41 44 43 43 44 39 35 36 36 36 37 38 40 41 42 43
49 49 47 46 46 46 48 49 49 50 52 50 52 52 50 47 39 37 36 37 36 37 39 38 38 37 39 40 43 45 45 43 43 42 36 38 39 37 35 37 40 42 43 45
51 53 51 48 47 46 46 46 48 52 54 54 57 53 48 51 45 43 41 41 41 42 42 42 43 42 41 42 44 44 41 42 42 42 39 37 39 41 40 40 41 43 44 47
51 54 53 51 49 50 52 53 49 52 55 59 59 53 52 52 50 50 44 44 47 47 45 45 46 45 45 45 43 46 45 41 44 43 44 39 37 38 39 40 40 41 42 44
50 55 55 54 52 52 53 53 56 57 59 61 60 58 55 54 54 51 52 50 50 50 49 50 48 49 50 49 48 48 48 45 44 47 47 43 40 39 40 40 41 42 43 43
49 54 57 57 58 56 55 57 58 59 60 62 61 61 56 55 56 54 54 57 56 56 54 52 52 51 52 53 53 51 48 44 42 48 50 47 45 44 45 45 46 47 48 47
57 61 59 57 59 57 57 55 58 62 61 63 62 61 54 55 56 57 57 57 57 58 59 57 57 56 55 56 58 58 52 48 46 46 50 47 45 44 46 49 50 52 52 51
46 50 55 60 66 64 60 58 58 59 60 64 64 59 51 56 57 57 56 57 59 59 60 61 58 59 59 60 61 60 54 50 50 50 48 48 49 50 52 51 53 55 55 54
50 49 52 56 53 59 65 67 63 61 62 62 64 59 53 57 59 57 57 58 61 62 60 61 62 63 64 65 63 62 55 50 49 49 47 45 48 51 54 52 53 55 55 55
63 59 57 58 60 58 57 55 54 60 65 69 67 62 63 58 57 58 59 59 57 59 65 66 64 64 66 64 64 61 60 53 47 48 49 48 49 49 50 50 51 51 53 54
68 70 66 61 60 61 63 60 58 58 58 62 65 68 57 58 58 57 60 62 64 65 66 63 62 61 62 60 59 57 55 55 51 49 50 51 50 49 48 47 46 47 48 48
70 72 74 77 76 78 81 66 65 64 63 63 66 60 55 56 56 54 53 57 63 63 57 57 59 60 59 60 58 59 57 57 57 56 54 51 48 47 48 48 46 47 49 49
72 72 70 72 75 78 80 78 76 76 74 72 71 69 65 61 58 55 56 63 56 57 57 58 60 60 62 61 59 59 61 61 61 59 54 50 50 50 50 48 47 48 50 51
65 66 70 71 78 80 78 74 70 63 74 69 68 66 70 70 67 68 62 66 66 64 63 64 65 65 65 63 62 62 62 62 62 62 59 56 55 55 54 53 54 54 55 56
66 67 70 70 74 78 76 72 71 75 79 72 73 75 70 67 73 73 68 69 69 67 68 70 69 68 69 69 69 67 66 65 64 64 66 67 65 60 57 57 58 59 59 59
68 69 71 72 75 77 68 65 65 74 79 79 79 78 79 81 80 76 73 73 72 72 70 72 75 74 73 74 72 71 70 68 67 66 67 68 66 65 64 66 66 65 64 65
72 72 72 73 73 75 67 65 71 73 78 75 71 71 70 70 69 73 76 78 78 80 79 79 78 75 73 69 71 74 75 75 75 73 72 72 73 74 76 77 74 73 75 76
76 75 74 73 71 68 65 62 59 64 73 74 71 71 73 73 72 72 72 74 74 76 77 80 80 79 79 82 82 82 81 80 79 81 82 81 81 80 80 76 75 72 72 73
72 72 77 78 78 76 74 70 63 55 53 53 63 67 65 67 67 65 65 65 65 66 67 72 74 75 76 77 79 82 83 82 79 79 78 78 78 77 74 75 65 60 60 59
69 70 72 75 77 76 75 74 76 77 78 77 75 71 74 73 64 62 62 62 60 58 59 59 60 69 61 67 69 70 70 68 66 65 64 62 62 61 58 56 52 48 46 46
63 66 67 70 67 70 73 70 70 75 76 76 77 74 72 72 65 60 57 55 56 55 58 61 62 68 62 52 49 43 45 47 51 50 43 38 41 41 44 46 48 47 49 49
Wind_Direction
236 233 232 232 231 234 238 238 239 243 243 245 245 238 246 249 246 255 261 268 273 274 281 287 287 293 297 302 305 307 307 301 299 295 286 278 273 271 273 274 274 276 276 277
238 237 234 234 235 238 240 240 240 244 246 247 246 240 242 249 250 254 262 270 271 276 279 283 288 292 296 298 301 302 304 305 299 295 289 287 277 275 273 273 275 275 275 274
239 240 238 237 238 239 240 241 242 244 247 251 249 243 244 245 254 259 261 267 273 275 278 282 287 291 295 297 299 301 303 305 298 292 285 283 281 272 270 270 268 270 272 275
240 241 239 238 241 243 241 241 242 244 248 250 252 256 238 244 250 260 266 270 272 275 279 284 287 291 295 297 298 301 302 302 300 293 285 278 279 274 266 265 266 266 268 270
244 243 241 241 241 242 244 244 244 245 248 251 253 258 253 247 251 256 263 267 272 276 280 283 286 289 291 294 296 299 297 299 298 298 286 278 278 274 268 269 268 267 268 270
243 243 243 241 242 242 245 246 246 246 247 250 253 256 258 254 256 258 261 264 270 273 276 280 283 285 287 290 297 298 295 292 294 293 290 277 278 278 276 272 271 271 273 275
245 245 244 244 244 245 246 248 249 249 250 251 254 256 262 265 261 264 267 268 266 270 275 278 280 279 283 289 296 296 293 289 288 286 285 278 273 276 276 274 273 274 275 277
242 243 244 245 247 249 247 248 249 253 253 251 251 255 262 264 265 266 265 267 271 274 275 277 277 279 283 290 295 298 291 284 281 280 281 279 274 272 273 274 274 276 278 278
247 246 246 245 244 245 246 247 250 251 252 254 252 254 258 264 267 269 267 268 270 272 274 275 277 280 282 287 292 298 294 287 277 274 276 276 275 274 275 275 277 278 280 281
242 246 244 244 243 242 245 246 246 247 250 252 255 255 257 260 265 267 272 271 271 273 275 276 279 280 284 290 295 299 297 288 282 276 276 275 274 277 279 280 280 280 281 281
244 245 246 245 245 245 243 244 247 249 249 253 256 256 258 260 263 266 268 274 276 278 279 281 282 285 288 292 295 298 299 290 281 276 276 277 279 281 284 285 284 282 282 284
243 247 248 249 247 247 248 247 247 248 250 251 252 253 258 261 263 264 268 270 274 278 280 282 283 284 285 291 295 295 296 288 282 277 277 282 283 284 286 285 283 283 283 283
243 248 250 251 254 252 251 252 255 255 252 254 256 259 258 259 261 263 266 269 273 275 278 281 282 285 288 289 290 289 289 284 281 276 273 278 281 281 279 280 282 281 280 280
244 245 244 245 249 251 250 249 252 252 253 258 259 261 252 258 261 261 263 264 264 269 274 277 281 282 282 283 283 284 283 280 278 276 274 275 277 279 283 285 284 281 280 282
243 246 245 238 241 242 247 247 250 250 254 253 258 257 258 258 261 263 262 264 265 267 270 274 277 279 280 283 283 281 283 284 282 278 278 281 282 285 286 285 282 280 280 281
245 243 244 244 241 249 249 248 245 248 251 253 256 254 261 257 257 259 260 263 262 262 265 268 270 273 276 278 279 280 281 282 281 281 280 282 286 286 283 282 283 282 281 281
249 248 249 249 250 254 255 245 252 254 250 250 253 254 253 254 255 259 261 259 260 263 265 265 267 270 273 274 276 277 279 282 283 282 282 281 279 276 276 279 280 280 277 276
253 253 255 255 254 258 256 256 256 255 255 260 266 266 262 262 260 254 256 262 261 261 263 265 268 271 272 273 274 277 278 278 279 279 278 278 277 277 279 280 280 280 279 279
253 256 258 257 257 258 256 256 262 262 265 266 267 264 264 265 269 261 262 267 264 264 264 264 266 270 273 274 275 275 276 277 276 276 275 274 275 277 278 278 280 281 281 281
253 254 255 257 258 259 257 255 257 259 258 259 258 263 264 261 266 268 265 265 264 263 266 267 268 269 269 270 271 271 271 270 270 271 272 275 277 278 280 283 284 282 283 286
256 257 257 259 260 261 262 262 262 256 257 255 257 259 262 265 268 268 267 265 264 265 267 268 268 268 270 269 268 269 269 268 268 269 271 273 274 274 277 283 285 284 283 284
255 258 259 260 261 262 264 260 257 259 261 263 264 264 264 264 262 260 262 264 266 268 267 270 271 271 267 269 270 269 268 269 270 271 272 274 275 276 279 285 287 285 285 285
255 259 262 260 261 263 265 266 263 263 262 261 262 263 263 263 264 263 263 265 266 267 268 269 269 267 268 270 271 272 269 270 273 274 275 276 279 281 281 281 283 284 284 285
256 256 257 258 259 262 262 260 261 263 258 259 265 267 264 265 266 268 268 268 266 267 266 265 267 268 265 265 270 271 267 269 271 272 273 274 276 278 279 280 282 279 278 276
258 258 260 261 261 261 260 261 261 257 255 258 261 260 265 267 266 264 266 265 267 266 268 266 266 268 264 273 274 273 272 272 274 278 277 278 279 279 275 272 269 270 274 281
261 263 261 262 262 263 260 258 259 261 261 262 263 263 265 268 265 263 266 267 270 269 263 264 269 265 270 264 262 259 262 268 270 267 266 275 272 282 286 281 283 279 279 282
Height
5805 5807 5811 5815 5816 5817 5821 5824 5828 5830 5831 5832 5835 5838 5840 5841 5844 5844 5845 5846 5847 5846 5845 5845 5845 5844 5844 5843 5842 5841 5839 5838 5837 5836 5835 5834 5833 5833 5833 5832 5832 5832 5831 5830
5799 5801 5805 5807 5810 5811 5815 5819 5823 5824 5825 5826 5828 5833 5835 5836 5839 5840 5841 5842 5842 5842 5841 5840 5839 5839 5839 5838 5837 5835 5833 5832 5830 5829 5828 5827 5826 5827 5826 5826 5825 5824 5823 5823
5790 5794 5797 5801 5802 5805 5809 5813 5816 5817 5818 5819 5822 5825 5828 5831 5834 5834 5836 5837 5837 5837 5835 5835 5834 5833 5832 5831 5830 5828 5826 5825 5823 5821 5820 5820 5818 5818 5818 5818 5817 5816 5815 5815
5781 5785 5790 5793 5796 5799 5802 5805 5808 5809 5810 5812 5816 5811 5822 5826 5828 5829 5831 5830 5831 5830 5830 5829 5828 5827 5825 5824 5822 5821 5818 5817 5815 5813 5812 5811 5810 5809 5809 5808 5807 5807 5806 5806
5775 5778 5782 5785 5789 5790 5793 5797 5799 5801 5803 5804 5808 5804 5811 5820 5821 5825 5825 5824 5824 5824 5823 5823 5821 5820 5820 5817 5815 5813 5811 5809 5806 5804 5803 5802 5801 5799 5799 5799 5798 5798 5797 5797
5763 5768 5771 5776 5780 5781 5785 5788 5790 5792 5794 5795 5799 5800 5798 5812 5814 5819 5818 5819 5818 5817 5816 5815 5814 5814 5812 5810 5808 5805 5803 5801 5798 5796 5794 5793 5792 5791 5792 5791 5790 5789 5789 5788
5754 5758 5762 5767 5771 5773 5775 5778 5780 5783 5784 5789 5788 5790 5791 5797 5806 5808 5810 5810 5810 5809 5808 5808 5806 5806 5804 5803 5801 5797 5793 5791 5789 5787 5785 5784 5784 5783 5783 5782 5781 5780 5780 5779
5741 5745 5751 5757 5762 5764 5766 5768 5771 5770 5772 5780 5777 5781 5787 5787 5794 5798 5800 5800 5800 5799 5799 5798 5797 5797 5796 5794 5791 5788 5785 5782 5779 5777 5775 5775 5774 5772 5772 5772 5772 5771 5770 5768
5730 5732 5739 5745 5748 5750 5754 5756 5764 5758 5761 5762 5769 5777 5779 5781 5784 5782 5789 5790 5788 5788 5789 5788 5787 5786 5784 5783 5781 5778 5776 5772 5770 5768 5766 5765 5764 5763 5762 5762 5761 5760 5758 5756
5719 5719 5725 5730 5734 5737 5739 5746 5745 5745 5748 5748 5759 5765 5768 5774 5774 5776 5773 5774 5776 5776 5776 5775 5774 5773 5771 5770 5769 5768 5765 5763 5761 5760 5758 5756 5756 5755 5754 5753 5751 5749 5747 5745
5708 5709 5713 5716 5720 5725 5729 5729 5732 5734 5737 5737 5744 5750 5762 5764 5763 5765 5765 5760 5760 5759 5760 5760 5758 5759 5758 5757 5757 5755 5754 5752 5751 5749 5748 5747 5747 5746 5745 5742 5740 5737 5735 5734
5695 5694 5700 5704 5708 5711 5714 5719 5720 5718 5725 5722 5728 5738 5752 5753 5754 5752 5752 5752 5751 5747 5745 5743 5743 5744 5745 5744 5743 5743 5743 5741 5740 5739 5739 5738 5737 5735 5733 5730 5727 5725 5723 5721
5682 5684 5688 5691 5697 5699 5701 5707 5709 5711 5709 5708 5713 5728 5745 5740 5739 5740 5741 5741 5739 5736 5733 5731 5729 5728 5729 5730 5731 5730 5732 5731 5728 5727 5729 5728 5726 5723 5719 5717 5715 5713 5710 5708
5670 5672 5675 5680 5684 5683 5687 5691 5693 5694 5692 5702 5699 5713 5729 5728 5726 5729 5729 5728 5724 5724 5722 5716 5716 5716 5715 5715 5717 5717 5718 5718 5716 5715 5714 5714 5711 5708 5706 5705 5702 5699 5697 5695
5654 5658 5661 5668 5670 5669 5671 5673 5677 5677 5684 5679 5695 5691 5710 5717 5714 5713 5711 5713 5716 5713 5708 5706 5702 5701 5700 5701 5701 5702 5701 5703 5703 5702 5700 5699 5697 5696 5693 5691 5689 5686 5683 5681
5638 5643 5646 5651 5659 5655 5653 5658 5663 5668 5671 5667 5675 5675 5696 5698 5698 5696 5697 5697 5696 5695 5697 5696 5691 5689 5688 5689 5689 5689 5689 5688 5688 5687 5686 5685 5684 5682 5679 5678 5676 5673 5671 5668
5626 5628 5630 5632 5641 5636 5632 5653 5656 5657 5657 5658 5653 5669 5676 5677 5681 5683 5683 5678 5675 5677 5681 5680 5678 5677 5677 5676 5678 5677 5676 5675 5673 5672 5671 5670 5669 5669 5667 5666 5664 5661 5658 5656
5610 5615 5614 5617 5619 5610 5628 5636 5643 5640 5644 5647 5642 5651 5661 5661 5662 5669 5669 5659 5666 5665 5665 5663 5661 5662 5662 5662 5662 5662 5661 5660 5660 5658 5656 5655 5655 5654 5653 5651 5650 5647 5645 5642
5598 5599 5595 5595 5598 5600 5610 5631 5628 5622 5625 5629 5626 5630 5640 5645 5639 5649 5658 5649 5650 5648 5649 5648 5647 5646 5646 5646 5646 5645 5645 5644 5644 5643 5641 5640 5639 5639 5638 5636 5635 5633 5630 5627
5582 5583 5579 5583 5576 5577 5602 5618 5616 5606 5590 5620 5611 5615 5620 5625 5618 5632 5628 5633 5634 5632 5631 5630 5630 5630 5631 5630 5630 5630 5629 5627 5626 5625 5624 5623 5622 5622 5620 5619 5618 5616 5614 5612
5564 5565 5563 5566 5561 5563 5588 5603 5599 5579 5588 5593 5597 5596 5602 5604 5605 5609 5612 5615 5616 5615 5613 5612 5612 5611 5611 5611 5611 5610 5611 5611 5610 5608 5607 5606 5605 5603 5602 5601 5600 5598 5596 5594
5549 5548 5548 5549 5548 5548 5572 5579 5572 5569 5566 5574 5578 5581 5579 5580 5586 5585 5589 5593 5595 5594 5592 5592 5593 5594 5593 5593 5593 5591 5591 5591 5591 5590 5589 5588 5587 5585 5584 5582 5580 5579 5576 5574
5525 5536 5536 5535 5536 5541 5547 5550 5552 5549 5550 5554 5556 5559 5557 5561 5565 5566 5568 5571 5574 5575 5574 5571 5572 5573 5574 5574 5573 5573 5573 5571 5571 5571 5569 5569 5567 5566 5564 5562 5560 5559 5557 5554
5512 5519 5509 5514 5524 5529 5531 5534 5535 5531 5529 5535 5538 5541 5539 5541 5545 5547 5548 5551 5553 5554 5554 5553 5552 5552 5552 5552 5552 5551 5550 5550 5551 5551 5550 5548 5546 5544 5543 5541 5540 5538 5536 5535
5495 5496 5500 5494 5507 5505 5512 5516 5514 5508 5509 5516 5522 5522 5521 5522 5530 5529 5531 5533 5534 5535 5534 5534 5535 5534 5532 5533 5532 5532 5531 5531 5532 5532 5532 5531 5529 5527 5526 5524 5522 5520 5519 5518
5486 5481 5476 5478 5488 5479 5487 5493 5489 5487 5489 5493 5496 5503 5506 5501 5509 5512 5515 5515 5516 5518 5520 5518 5519 5519 5517 5516 5516 5516 5515 5516 5516 5516 5515 5515 5514 5515 5513 5510 5508 5505 5503 5501